User: anonymous   Login
Location: Kitchener
(43.4500°N, 80.5000°W)
Time: 11:21:19
(UTC-05:00)
Language:

ATLAS 5 CENTAUR R/B - Orbit

View from above orbital plane
View from above orbital plane
View from above satellite
View from above satellite

Ground track
Ground track

The orbit data is extracted from the following two-line orbital elements,

1 31702U 07027B   17034.72610947 0.00000000  00000-0  00000-0 0    03
2 31702  63.3692 251.7432 0254315   2.4448 357.5552 14.18541358    02
Epoch (UTC): 03 February 2017 17:25:35
Eccentricity: 0.0254315
inclination: 63.3692°
perigee height: 647 km
apogee height: 1013 km
right ascension of ascending node: 251.7432°
argument of perigee: 2.4448°
revolutions per day: 14.18541358
mean anomaly at epoch: 357.5552°
orbit number at epoch: 0

The dashed part of the orbit path shows where the satellite is in the earth's shadow,  

DLR